Regional Weather Roundup
Issued by NWS Grand Forks, ND

Home | Current Version | Previous Version | Text Only | Print | Product List | Glossary Off
Versions: 1 2 3 4 5 6 7 8 9 10 11 12 13 14 15 16 17 18 19 20 21 22 23 24 25 26 27 28 29 30 31 32 33 34 35 36 37 38 39 40 41 42 43 44 45 46 47 48 49 50

000
ASUS43 KFGF 011010
RWRFGF
PRAIRIE TO PINES  WEATHER ROUNDUP
NATIONAL WEATHER SERVICE EASTERN NORTH DAKOTA/GRAND FORKS ND
500 AM CDT SAT AUG 01 2015

 **SATELLITE DATA USED TO AUGMENT SKY COVER AT AUTOMATED STATIONS**
 *****  WEATHER ACROSS EASTERN NORTH DAKOTA  *****

CITY           SKY/WX    TMP DP  RH WIND       PRES   REMARKS
GRAND FORKS    CLEAR     55  51  86 W6        29.96R
GRAND FRKS AFB CLEAR     55  51  86 W5        29.97R
GRAND FRKS NWS   N/A     55 N/A N/A W1          N/A
DEVILS LAKE    PTCLDY    63  55  77 CALM      29.99F
FARGO          PTCLDY    59  55  87 SW3       29.97F
WAHPETON ARPT  SUNNY     54  52  94 CALM      29.99S
$$

 ***** WEATHER ACROSS CENTRAL AND WESTERN NORTH DAKOTA  *****

CITY           SKY/WX    TMP DP  RH WIND       PRES   REMARKS
BISMARCK       PTCLDY    58  55  90 NE7       30.00F
MINOT          MOCLDY    56  52  86 CALM      29.98F
JAMESTOWN      PTCLDY    59  55  87 CALM      30.00S
MINOT AFB      PTCLDY    54  53  94 CALM      29.97F
GARRISON         N/A     55  53  93 CALM      29.99F
WILLISTON      CLEAR     61  53  75 N6        29.96F
DICKINSON      CLEAR     54  49  83 E7        29.95F
HETTINGER      CLEAR     63  49  60 CALM      29.99F
$$

 *****  OTHER AIRPORT OBSERVATIONS IN OUR AREA  *****

CITY           SKY/WX    TMP DP  RH WIND       PRES   REMARKS
WALHALLA       FAIR      57  54  88 MISG      29.96S
GRAFTON AIRPOR FAIR      55  54  94 W7        29.96S
VALLEY CITY AR FAIR      57  57 100 CALM      30.00F
CANDO          NOT AVBL
CAVALIER APRT  FAIR      55  52  88 W7        29.95S
GWINNER          N/A     59  57  94 SW6       30.00F
SHEYENNE NWR     N/A     56  55  98 CALM      29.95
ROLLA          FAIR      50  50 100 W5        30.01F
 ***** THE ABOVE OBSERVATIONS ARE NON NWS ARE NOT QUALITY
       CONTROLLED AND MAY MIS-REPORT RAIN FOR SNOW...
$$

  *****  WEATHER ACROSS NORTHERN MINNESOTA  *****

CITY           SKY/WX    TMP DP  RH WIND       PRES   REMARKS
FLAG ISLAND    CLEAR     61  54  77 W12       29.89S
WARROAD        CLEAR     55  54  94 W6        29.93S
ROSEAU         CLEAR     54  48  82 SW5       29.93S
HALLOCK        CLEAR     48  46  93 CALM      29.94S
THF RVR FALLS  CLEAR     55  52  88 CALM      29.96S
BAUDETTE       CLEAR     53  50  89 MISG      29.91S
WASKISH        CLEAR     57  54  88 NW3       29.93F
CROOKSTON      CLEAR     54  52  94 CALM      29.97S
STEPHEN NDAWN    N/A     55  52  88 W3          N/A
GREENBUSH NDAW   N/A     54  52  94 SW2         N/A
$$
  *****  WEATHER ACROSS CENTRAL AND WEST MINNESOTA  *****

CITY           SKY/WX    TMP DP  RH WIND       PRES   REMARKS
FOSSTON        CLEAR     48  48 100 S3        29.98S
BEMIDJI        CLEAR     54  50  86 W5        29.96S
PARK RAPIDS    CLEAR     53  49  86 CALM      29.98S
ELBOW LAKE     FAIR      61  60  95 CALM      29.99F
WADENA         CLEAR     54  54 100 CALM      29.98F
DETROIT LAKES  CLEAR     55  54  94 CALM      30.00S
MOORHEAD       CLEAR     57  55  94 SW3       29.98F
FERGUS FALLS   CLEAR     61  57  88 CALM      29.99S
MORRIS MN      CLEAR     61  59  94 CALM      29.98F
STAPLES        CLEAR     54  52  94 CALM      29.98S
$$
  *****  WEATHER ELSEWHERE ACROSS MINNESOTA  *****

CITY           SKY/WX    TMP DP  RH WIND       PRES   REMARKS
DULUTH         CLEAR     58  50  75 W7        29.94S
INTRNTL FALLS  CLEAR     53  49  86 W3        29.90S
ELY            CLEAR     52  50  93 SW3       29.91S
CLOQUET        CLEAR     55  48  76 W6        29.95S
WHEATON        CLEAR     57  55  94 SW6       30.00F
BRAINERD       CLEAR     52  51  97 S3        29.97F
HIBBING        CLEAR     48  45  89 CALM      29.94S
ALEXANDRIA     FOG       60  59  96 CALM      30.00F VSB 1/2
SAINT CLOUD    CLEAR     58  57  97 N3        29.97F
MINNEAPOLIS    PTCLDY    68  58  70 CALM      29.96F
$$

  *****  WEATHER ACROSS SOUTH DAKOTA  *****

CITY           SKY/WX    TMP DP  RH WIND       PRES   REMARKS
SIOUX FALLS    CLEAR     69  65  86 SW6       30.00F
BROOKINGS      CLEAR     63  57  82 N3        30.04R
WATERTOWN      CLEAR     62  57  83 SE3       30.02F
HURON            N/A     63  61  93 NE7       29.99S
SISSETON         N/A     57  56  96 CALM      29.98F
ABERDEEN       PTCLDY    59  54  83 N3        29.99F
MITCHELL       CLEAR     67  65  93 SW5       29.99F
PIERRE         CLEAR     72  61  68 S13       29.96F
MOBRIDGE       PTCLDY    64  59  83 E8        29.95F
RAPID CITY     PTCLDY    64  56  75 NE8       30.04F
$$

  *****  SOME WEATHER IN NEARBY STATES *****

CITY           SKY/WX    TMP DP  RH WIND       PRES   REMARKS
GLASGOW MT     CLEAR     58  50  75 E9        29.95F
GREAT FALLS MT CLEAR     63  33  32 SW13      30.04S
CHEYENNE WY    CLEAR     57  50  77 W6        30.24F
SCOTTSBLUFF NE CLEAR     64  55  72 E8        30.10F
OMAHA NE       PTCLDY    71  67  87 CALM      30.04S
DES MOINES IA  PTCLDY    69  65  86 S6        30.03F
DAVENPORT IA   CLEAR     58  56  93 SW6       30.03F
CHICAGO IL     CLEAR     65  53  65 W7        29.98S
EAU CLAIRE WI  MOCLDY    61  55  81 SW3       29.97S
LA CROSSE WI   MOCLDY    65  58  78 NE5       29.98S
$$

  *****  SOME NATIONAL WEATHER *****

CITY           SKY/WX    TMP DP  RH WIND       PRES   REMARKS
LA GUARDIA NY  PTCLDY    77  59  53 SW8       29.78S
RALEIGH NC     PTCLDY    66  64  93 CALM      29.94R
ATLANTA GA     PTCLDY    74  62  66 CALM      29.94S
NEW ORLEANS LA PTCLDY    81  66  60 NE10      29.88F
OKLAHOMA CITY  MOCLDY    73  72  96 CALM      30.08F
ALBUQUERQUE NM CLOUDY    68  58  70 E3        30.30F
SALT LAKE CITY PTCLDY    67  37  33 S8        30.08F
LOS ANGELES CA CLOUDY    67  65  93 W3        29.97S FOG
BOISE ID       CLEAR     74  36  25 SE6       29.99S
SEATTLE WA     CLEAR     71  39  31 NE3       30.00S
$$

*** WEATHER ACROSS MANITOBA...SASKATCHEWAN AND ONTARIO ***
                ***ONTARIO***

CITY           SKY/WX    TMP DP  RH WIND       PRES   REMARKS
GERALDTON      MOCLDY    55  55 100 W6        29.74S
THUNDER BAY    PTCLDY    55  54  94 W7        29.82S
SIOUX LOOKOUT  PTCLDY    55  54  94 W2        29.82F
TORONTO        PTCLDY    63  55  77 W12       29.82R
BIG TROUT LK   MOCLDY    57  54  88 W10       29.59S
PICKLE LAKE    NOT AVBL
DRYDEN         CLEAR     55  54  94 W8        29.85S
KENORA         PTCLDY    57  54  88 W5        29.89R
$$
                *** MANITOBA***

CITY           SKY/WX    TMP DP  RH WIND       PRES   REMARKS
BRANDON        PTCLDY    48  46  93 W7        29.96F
DAUPHIN        CLEAR     55  50  82 SW9       29.89F
ISLAND LAKE    PTCLDY    59  55  88 W14       29.69F
PILOT MOUND      N/A     48  46  93 SW7         N/A
THE PAS        LGT RAIN  61  55  82 NW8       29.84F
THOMPSON       CLEAR     50  48  93 W6        29.72F
WINNIPEG       PTCLDY    55  52  88 W8        29.91F
LYNN LAKE      MOCLDY    50  48  93 NW7       29.80F
CHURCHILL      LGT RAIN  48  46  93 N20G28    29.49F
$$
                ***SASKATCHEWAN***

CITY           SKY/WX    TMP DP  RH WIND       PRES   REMARKS
ESTEVAN        CLEAR     50  46  87 E6        29.97F
KINDERSLEY     MOCLDY    61  54  77 SE8       29.91F
LLOYDMINSTER   CLOUDY    59  55  88 W5        29.93F
PRINCE ALBERT  MOCLDY    55  54  94 VRB3      29.90S
REGINA         CLEAR     54  50  87 S9        29.95F
YORKTON        CLEAR     57  52  82 SW13      29.91F
N. BATTLEFORD  CLOUDY    61  54  77 W7        29.93F
LA RONGE       MOCLDY    59  55  88 W8        29.87
SASKATOON      MOCLDY    54  52  94 SW5       29.92S
SWIFT CURRENT  CLEAR     59  52  77 S10       29.92F
$$
NOTE: THESE ARE AUTOMATED STATIONS WITH LIMITED QUALITY CONTROL
      "FAIR" INDICATES FEW OR NO CLOUDS BELOW 12,000 FEET WITH NO
      SIGNIFICANT WEATHER AND/OR OBSTRUCTIONS TO VISIBILITY.
      SKY/WX - SKY CONDITION AND SIGNIFICANT WEATHER.
      TMP - AIR TEMPERATURE.    DP   - DEWPOINT TEMPERATURE.
      RH  - RELATIVE HUMIDITY.  PRES - PRESSURE.
      HX  - HEAT INDEX.         WCI  - WIND CHILL INDEX.
$


USA.gov is the U.S. government's official web portal to all federal, state and local government web resources and services.